Wind_Speed
18 19 22 26 29 32 34 36 37 37 36 35 36 38 39 39 40 41 45 48 49 50 52 53 53 54 54 53 53 52 51 50 49 48 46 45 44 44 43 43 42 42 42 42
19 20 21 24 27 28 32 35 37 37 36 37 37 39 41 40 40 40 43 46 48 49 51 52 52 53 53 53 52 52 51 50 50 49 48 47 45 45 44 43 42 42 42 42
20 19 19 22 24 27 30 34 37 37 35 37 38 40 43 42 41 41 42 44 46 48 49 50 51 51 51 52 52 52 51 50 50 49 49 48 46 45 44 43 43 42 42 42
20 21 21 19 22 24 27 31 35 36 35 36 37 40 43 43 42 42 42 43 45 46 47 48 50 50 50 51 52 52 51 50 49 49 49 48 47 45 45 44 43 43 43 43
21 21 21 19 20 23 26 29 33 35 35 35 37 39 42 43 42 43 44 45 46 46 46 48 49 50 50 50 51 52 51 51 50 50 49 48 47 46 45 44 43 42 42 41
21 21 21 20 20 22 26 29 32 34 35 35 38 40 41 41 42 42 44 44 46 46 46 47 47 48 49 50 50 51 51 50 50 50 49 48 47 46 46 45 43 42 41 40
20 21 21 20 20 22 25 28 31 33 35 36 38 40 40 41 41 42 42 43 44 45 46 47 47 47 48 49 49 50 50 50 50 49 48 47 46 45 45 45 43 42 40 39
21 22 21 22 22 23 24 28 31 33 34 35 37 39 40 41 41 41 41 42 43 44 45 46 46 47 47 49 49 49 48 49 49 48 47 46 45 44 44 43 42 41 40 38
22 22 22 23 24 24 26 28 30 33 34 35 37 38 40 41 42 42 42 42 42 44 44 45 46 46 47 48 49 49 48 48 48 48 47 46 45 44 42 41 41 40 39 38
22 21 22 24 25 25 25 27 29 31 33 35 37 38 39 41 42 43 44 43 43 44 44 46 46 45 44 46 48 49 47 46 46 46 46 45 43 43 42 41 40 40 39 38
21 21 22 24 26 26 26 27 28 30 32 35 37 39 40 41 42 43 43 44 44 44 44 45 46 45 44 44 45 46 47 47 46 45 44 44 43 42 41 40 39 38 37 37
21 22 23 23 25 27 28 28 28 30 31 33 36 39 40 41 42 43 45 45 45 45 45 45 45 45 45 44 44 44 45 46 46 45 45 44 43 42 40 39 38 37 36 35
22 23 23 24 25 26 27 28 29 31 32 32 35 38 40 42 42 43 45 46 46 46 45 45 45 45 44 44 44 44 45 45 45 45 44 43 42 41 40 38 38 37 36 35
23 23 24 24 25 26 27 28 29 30 32 33 34 36 39 41 42 41 43 46 47 47 47 47 47 45 44 44 44 44 45 45 44 44 43 42 41 41 39 38 37 36 35 34
22 23 23 24 25 26 27 29 29 29 30 32 34 35 37 40 41 42 43 45 46 47 48 47 46 46 45 45 46 46 46 46 45 43 42 41 41 40 38 37 36 35 35 34
22 22 23 24 25 26 27 29 30 29 29 31 33 34 35 36 39 42 44 45 46 46 47 47 46 46 46 45 45 45 45 45 45 43 42 41 41 39 38 36 35 35 35 34
20 21 22 23 24 25 26 27 28 29 29 30 31 32 33 34 36 39 43 45 46 46 47 47 46 46 46 45 45 44 44 44 44 44 43 42 41 40 38 37 36 35 35 34
19 20 20 21 21 22 23 24 25 26 27 28 29 30 32 33 35 36 40 43 44 45 47 47 46 46 46 45 45 44 43 43 44 43 42 42 41 40 38 37 36 35 34 34
18 19 19 18 19 20 20 20 22 24 26 27 28 29 31 32 34 35 36 38 40 42 44 45 45 46 46 45 44 44 43 42 43 43 41 41 41 39 38 36 35 34 34 33
17 17 16 16 17 18 18 19 20 22 23 25 26 28 29 30 32 34 35 37 37 38 40 42 42 43 43 42 42 42 41 41 41 41 41 39 39 39 38 37 35 35 34 33
17 17 16 16 16 16 16 17 19 20 22 24 25 27 29 29 31 32 34 35 35 35 37 38 39 40 41 41 41 40 40 39 39 39 39 38 38 38 37 36 35 34 33 33
17 17 17 16 16 16 16 16 17 19 21 22 24 26 27 28 29 31 33 34 34 34 35 36 38 39 39 39 39 39 39 39 38 38 38 38 37 37 36 36 35 34 33 32
17 17 16 16 16 15 16 16 16 17 19 21 23 25 27 27 28 29 30 32 34 34 34 35 37 37 38 38 39 39 39 38 38 37 37 37 37 36 35 35 35 34 32 31
16 15 15 15 15 14 14 15 16 16 17 20 23 24 25 25 26 27 28 30 32 32 33 34 35 36 37 37 38 38 37 37 37 37 37 36 36 35 34 34 33 32 31 30
15 14 13 14 14 14 14 15 15 16 17 19 22 23 24 24 25 26 26 27 29 31 32 32 34 35 36 36 36 36 36 36 36 36 36 35 35 34 33 32 30 29 29 28
13 12 11 11 12 13 14 15 15 17 17 18 20 22 23 25 25 25 25 26 27 28 30 31 31 33 35 35 35 36 36 36 35 35 34 34 33 32 31 29 28 28 27 27
11 10 10 10 10 10 12 13 14 15 18 19 20 21 22 24 26 25 25 25 26 27 29 29 30 31 32 33 33 33 34 34 33 33 33 32 32 31 29 28 27 27 27 26
Wind_Direction
248 243 236 232 228 226 226 224 221 217 216 212 214 215 213 213 213 214 215 217 216 215 216 219 220 220 221 223 224 225 225 226 227 228 230 232 233 235 238 240 242 244 246 248
249 243 239 235 232 230 229 226 223 219 216 213 212 212 212 211 211 212 214 215 216 216 216 217 219 219 220 222 223 225 226 226 227 228 230 231 233 236 237 239 241 243 245 247
249 245 242 237 234 234 230 227 224 221 217 216 214 212 212 211 210 211 213 214 216 217 217 218 218 218 219 221 222 224 225 226 228 229 230 230 232 235 237 239 241 243 245 247
251 247 247 239 236 235 232 229 225 223 221 218 215 213 213 212 211 210 212 214 215 216 216 217 218 219 219 219 221 222 224 225 227 229 230 231 232 234 236 238 240 243 245 246
250 248 245 240 235 233 233 229 225 224 222 219 217 215 214 213 211 211 213 215 215 216 216 215 216 217 218 219 220 222 223 225 227 228 229 231 232 233 235 237 239 243 245 247
252 250 249 241 237 235 233 230 226 224 223 221 218 217 216 216 216 213 214 215 216 216 217 216 215 217 218 218 220 221 223 224 226 227 229 230 233 234 236 237 239 242 246 248
254 253 251 245 241 236 233 228 227 225 223 222 221 219 219 218 217 215 215 216 216 216 216 217 216 217 219 219 220 220 221 223 224 226 228 230 232 234 236 238 240 242 245 246
254 254 253 246 243 240 237 231 229 227 226 225 223 221 221 221 220 218 218 217 216 215 215 217 217 217 219 220 219 219 221 222 223 224 226 228 230 233 235 237 239 242 244 245
258 256 252 247 246 244 241 237 232 230 229 227 225 223 223 224 223 221 220 218 218 216 217 217 217 218 219 220 219 220 221 221 222 223 225 227 230 232 234 237 239 241 243 245
263 259 252 248 245 245 244 239 234 232 229 228 226 224 225 225 224 223 222 221 219 218 218 219 218 218 218 219 219 220 220 221 222 223 225 227 229 231 234 236 238 240 243 245
265 261 256 251 246 244 242 239 236 233 230 229 227 225 225 225 225 224 224 224 221 219 219 218 218 217 217 217 218 219 220 221 222 223 225 227 229 231 233 234 237 239 241 244
267 262 259 254 249 245 243 241 239 236 233 229 228 226 225 225 225 225 224 223 222 220 219 218 219 218 218 218 218 219 220 222 222 224 226 228 229 230 231 233 235 237 240 243
268 263 259 255 250 247 246 244 242 239 236 232 228 226 225 224 222 222 222 222 222 221 219 218 219 219 218 219 218 219 220 221 222 223 225 226 228 230 231 232 234 236 240 243
270 266 261 257 253 250 248 246 244 241 237 234 229 227 225 223 222 221 221 221 221 221 220 219 219 219 220 221 220 220 220 220 221 222 223 226 228 230 232 233 235 238 240 242
272 270 265 259 256 253 250 246 245 244 241 236 230 228 226 225 224 222 221 220 221 221 220 219 219 219 221 221 220 220 220 220 222 222 223 226 228 230 232 233 235 237 239 242
273 271 268 264 259 256 252 248 246 244 242 237 232 229 226 224 223 221 220 219 219 220 220 220 219 219 221 221 219 220 221 221 221 222 223 225 227 229 231 234 235 238 240 243
276 275 271 266 260 255 252 250 247 244 241 236 232 227 224 223 222 221 220 220 219 219 220 219 218 219 220 221 221 222 222 221 221 222 223 224 226 228 231 233 236 239 241 244
284 281 276 270 263 256 252 249 246 242 240 236 232 227 223 220 219 219 218 219 218 218 218 218 219 220 221 221 222 222 222 222 222 221 222 223 225 227 229 232 236 239 241 244
287 283 279 275 267 261 254 247 242 238 235 233 229 225 220 217 216 216 215 214 214 215 217 218 219 219 219 220 221 221 222 221 220 220 222 225 226 227 230 233 236 238 241 243
287 286 283 277 271 264 254 247 241 236 232 230 226 222 218 215 213 212 212 212 212 214 215 215 216 217 217 218 219 219 220 221 220 221 222 224 226 228 231 233 236 239 241 243
286 283 281 277 273 266 257 247 239 233 229 225 223 219 216 213 212 213 213 213 213 213 214 214 214 214 215 215 215 216 217 218 219 220 221 223 225 228 231 233 235 238 240 242
284 282 279 275 272 267 258 249 240 231 224 220 218 216 213 212 211 212 212 212 213 213 212 211 211 212 213 213 214 214 215 217 219 221 223 225 227 230 231 233 234 237 239 242
285 282 277 274 270 264 254 246 239 230 222 217 214 213 211 210 209 210 210 210 210 210 210 209 209 210 211 212 213 214 215 218 219 220 222 225 228 230 232 233 234 235 238 242
283 280 274 268 265 257 248 239 234 229 220 213 209 207 205 205 206 207 207 206 207 208 208 207 207 208 209 211 213 214 215 217 217 218 221 224 226 227 230 232 233 234 237 240
284 279 272 266 260 251 242 235 229 224 218 211 206 204 202 202 203 205 205 203 203 205 205 205 206 208 210 211 212 212 213 216 218 218 219 221 223 225 227 229 230 231 234 237
283 278 273 266 256 245 239 233 225 220 216 210 206 204 203 202 202 202 202 202 204 205 205 206 206 208 209 210 210 211 213 215 216 217 218 218 219 221 223 224 227 231 234 237
280 276 273 266 254 242 235 230 222 214 209 205 203 202 201 199 198 199 201 201 201 202 204 206 207 207 208 207 208 210 212 213 214 214 214 215 215 216 220 224 228 232 235 238
Height
5453 5453 5455 5457 5460 5463 5466 5470 5475 5481 5487 5494 5500 5505 5512 5519 5526 5533 5541 5549 5557 5566 5575 5583 5592 5600 5609 5617 5625 5633 5640 5647 5655 5661 5667 5672 5678 5683 5688 5692 5696 5700 5703 5706
5448 5448 5449 5451 5454 5457 5460 5464 5468 5474 5480 5486 5491 5497 5504 5511 5518 5525 5533 5541 5549 5557 5565 5573 5582 5590 5599 5607 5615 5622 5630 5637 5644 5650 5656 5662 5668 5673 5678 5683 5686 5690 5693 5696
5442 5442 5443 5446 5448 5450 5453 5457 5462 5467 5474 5478 5483 5489 5495 5502 5510 5517 5525 5532 5540 5548 5556 5564 5572 5580 5588 5596 5604 5612 5619 5626 5633 5639 5645 5652 5657 5663 5668 5672 5676 5680 5683 5687
5436 5438 5438 5442 5442 5444 5447 5450 5454 5459 5465 5470 5475 5481 5488 5494 5502 5509 5516 5523 5531 5538 5546 5554 5562 5570 5578 5586 5593 5601 5609 5616 5623 5629 5635 5641 5647 5653 5658 5662 5666 5670 5673 5676
5430 5431 5432 5435 5436 5438 5440 5444 5448 5452 5457 5462 5468 5474 5480 5487 5493 5500 5507 5514 5521 5529 5536 5543 5551 5559 5567 5575 5583 5591 5598 5605 5612 5619 5625 5631 5637 5643 5648 5652 5656 5660 5663 5666
5425 5425 5426 5429 5430 5431 5435 5437 5442 5445 5450 5455 5460 5466 5473 5479 5485 5492 5498 5505 5512 5520 5527 5534 5541 5549 5557 5565 5573 5580 5588 5595 5602 5609 5615 5621 5627 5632 5637 5642 5646 5650 5653 5656
5419 5419 5420 5423 5424 5425 5429 5431 5434 5437 5442 5447 5452 5459 5465 5470 5476 5483 5490 5496 5503 5510 5518 5525 5532 5539 5547 5555 5563 5570 5578 5585 5592 5599 5605 5611 5617 5622 5627 5632 5636 5640 5644 5647
5413 5413 5417 5416 5417 5419 5420 5422 5425 5430 5435 5439 5444 5450 5456 5462 5468 5475 5481 5487 5494 5501 5508 5516 5523 5530 5538 5545 5553 5560 5568 5575 5582 5589 5595 5601 5607 5612 5617 5622 5626 5630 5634 5637
5407 5409 5409 5409 5410 5411 5413 5415 5418 5422 5427 5432 5437 5442 5448 5453 5459 5466 5472 5479 5485 5492 5499 5507 5514 5521 5528 5536 5543 5551 5558 5565 5572 5579 5585 5591 5597 5603 5607 5612 5617 5621 5624 5628
5400 5401 5402 5402 5403 5405 5406 5408 5411 5414 5419 5423 5428 5434 5439 5445 5451 5457 5463 5470 5476 5483 5491 5498 5505 5512 5519 5526 5533 5541 5549 5556 5563 5569 5576 5582 5587 5593 5598 5603 5607 5611 5615 5618
5394 5395 5394 5395 5396 5398 5399 5401 5403 5406 5410 5415 5420 5425 5431 5436 5442 5448 5454 5461 5468 5474 5482 5489 5496 5503 5510 5517 5524 5532 5539 5546 5553 5560 5566 5572 5578 5583 5588 5593 5598 5602 5606 5609
5387 5388 5387 5388 5389 5390 5392 5394 5396 5399 5402 5406 5410 5416 5421 5427 5433 5439 5445 5452 5458 5466 5472 5479 5487 5494 5501 5508 5515 5523 5530 5537 5544 5550 5557 5563 5569 5574 5579 5584 5588 5593 5596 5600
5379 5379 5379 5380 5381 5382 5384 5386 5388 5391 5394 5397 5401 5406 5412 5417 5423 5429 5435 5442 5449 5456 5463 5470 5478 5485 5492 5499 5506 5513 5521 5528 5534 5541 5547 5554 5559 5565 5570 5575 5579 5584 5587 5591
5372 5372 5372 5372 5373 5374 5375 5377 5379 5381 5384 5387 5391 5396 5401 5407 5413 5420 5426 5432 5439 5446 5454 5461 5469 5477 5484 5490 5497 5504 5511 5518 5525 5532 5538 5544 5551 5556 5562 5566 5571 5575 5579 5582
5364 5364 5364 5364 5365 5365 5366 5368 5370 5372 5375 5378 5381 5386 5391 5397 5403 5410 5416 5422 5429 5437 5445 5452 5460 5468 5475 5481 5488 5495 5502 5509 5515 5522 5529 5535 5542 5548 5553 5558 5562 5566 5570 5573
5357 5356 5355 5355 5356 5356 5357 5358 5360 5363 5365 5368 5372 5377 5381 5386 5393 5399 5406 5413 5420 5428 5436 5443 5451 5458 5465 5472 5479 5486 5493 5500 5506 5513 5520 5527 5533 5539 5544 5549 5553 5558 5561 5565
5349 5349 5348 5347 5347 5348 5348 5349 5351 5353 5356 5359 5363 5367 5372 5377 5383 5389 5396 5403 5410 5418 5426 5434 5442 5449 5456 5464 5471 5477 5484 5491 5498 5504 5511 5518 5524 5530 5535 5540 5545 5549 5553 5556
5342 5341 5340 5339 5339 5339 5340 5341 5342 5345 5347 5350 5353 5358 5362 5368 5374 5380 5386 5393 5401 5409 5417 5424 5432 5440 5447 5454 5462 5469 5476 5482 5489 5496 5503 5509 5515 5521 5527 5532 5537 5541 5544 5548
5336 5334 5333 5332 5332 5332 5332 5333 5334 5336 5338 5341 5345 5349 5354 5359 5365 5371 5378 5385 5392 5400 5407 5415 5423 5430 5438 5445 5452 5460 5467 5473 5480 5487 5494 5500 5507 5513 5518 5524 5528 5532 5536 5539
5329 5328 5326 5326 5325 5324 5325 5326 5327 5329 5331 5334 5338 5342 5347 5352 5358 5364 5371 5378 5385 5392 5398 5405 5413 5421 5428 5436 5443 5451 5458 5464 5471 5478 5485 5492 5498 5504 5510 5515 5520 5524 5528 5531
5323 5321 5320 5319 5318 5318 5318 5319 5320 5322 5324 5327 5331 5335 5340 5345 5351 5357 5363 5370 5377 5383 5390 5397 5405 5412 5419 5427 5434 5442 5449 5456 5463 5470 5476 5483 5489 5495 5501 5506 5511 5515 5519 5522
5317 5315 5313 5312 5312 5312 5312 5312 5314 5316 5318 5321 5325 5329 5334 5339 5345 5350 5356 5363 5369 5375 5382 5389 5396 5403 5411 5418 5426 5433 5440 5448 5455 5461 5468 5474 5481 5486 5492 5497 5502 5506 5510 5514
5310 5308 5307 5306 5305 5305 5306 5307 5308 5310 5312 5316 5319 5324 5328 5333 5339 5344 5350 5356 5362 5368 5375 5382 5389 5396 5403 5410 5418 5425 5432 5440 5446 5453 5459 5466 5472 5478 5483 5488 5493 5497 5501 5505
5303 5302 5300 5300 5299 5300 5300 5301 5303 5305 5307 5310 5314 5319 5323 5329 5334 5339 5345 5350 5356 5363 5369 5375 5382 5389 5396 5404 5411 5418 5425 5432 5438 5445 5451 5457 5463 5469 5474 5479 5484 5488 5492 5496
5297 5296 5295 5294 5294 5294 5295 5297 5298 5301 5303 5306 5310 5315 5319 5324 5330 5335 5340 5346 5351 5358 5364 5371 5377 5383 5390 5397 5404 5411 5417 5424 5430 5437 5443 5449 5455 5461 5466 5471 5475 5480 5484 5487
5292 5290 5289 5289 5289 5289 5290 5292 5294 5297 5300 5303 5307 5311 5316 5320 5326 5331 5336 5342 5348 5354 5360 5366 5372 5378 5384 5391 5397 5404 5410 5417 5423 5429 5435 5441 5447 5453 5458 5463 5467 5472 5476 5479
5287 5286 5285 5284 5284 5285 5286 5288 5290 5293 5296 5299 5303 5307 5312 5317 5322 5328 5333 5338 5344 5350 5356 5362 5367 5373 5379 5385 5392 5398 5404 5410 5416 5422 5428 5434 5439 5445 5450 5455 5460 5464 5468 5471